VE3DVC Weather Reports


Display with metric or nautical units.
time (UTC)temp
F
wind
direction
speed
MPH
gust
MPH
rain 1hr
in
rain 24hr
in
rain mn
in
humidity
%
barometer
mb
20260508123423 43 0 0.0 0.0 0.00 0.00 0.00 91 1011.8
20260508122224 42 0 0.0 0.0 0.00 0.00 0.00 91 1011.7
20260508120717 42 0 0.0 0.0 0.00 0.00 0.00 91 1011.6
20260508115516 41 0 0.0 0.0 0.00 0.00 0.00 91 1011.6
20260508112027 41 0 0.0 0.0 0.00 0.00 0.00 92 1011.4
20260508110827 41 0 0.0 0.0 0.00 0.00 0.00 92 1011.4
20260508105626 40 0 0.0 0.0 0.00 0.00 0.00 91 1011.3
20260508104426 40 0 0.0 0.0 0.00 0.00 0.00 92 1011.2
20260508103227 40 0 0.0 0.0 0.00 0.00 0.00 92 1011.1
20260508102027 40 0 0.0 0.0 0.00 0.00 0.00 92 1010.8
20260508100827 40 0 0.0 0.0 0.00 0.00 0.00 92 1010.9
20260508095627 41 0 0.0 0.0 0.00 0.00 0.00 92 1011.0
20260508094427 41 0 0.0 0.0 0.00 0.00 0.00 92 1010.8
20260508093227 41 0 0.0 0.0 0.00 0.00 0.00 92 1011.0
20260508092027 41 0 0.0 0.0 0.00 0.00 0.00 92 1010.9
20260508090827 41 0 0.0 0.0 0.00 0.00 0.00 92 1010.9
20260508085627 41 0 0.0 0.0 0.00 0.00 0.00 92 1010.9
20260508084427 41 0 0.0 0.0 0.00 0.00 0.00 92 1011.2
20260508083226 41 0 0.0 0.0 0.00 0.00 0.00 92 1011.1
20260508082026 41 0 0.0 0.0 0.00 0.00 0.00 92 1011.1
20260508080827 41 0 0.0 0.0 0.00 0.00 0.00 92 1011.1
20260508075414 41 0 0.0 0.0 0.00 0.00 0.00 92 1010.9
20260508074214 41 0 0.0 2.0 0.00 0.00 0.00 92 1010.8
20260508073014 41 0 0.0 2.0 0.00 0.00 0.00 92 1010.9
20260508071814 41 0 0.0 0.0 0.00 0.00 0.00 92 1011.2
20260508070614 41 0 0.0 0.0 0.00 0.00 0.00 92 1011.2
20260508065414 41 0 0.0 0.0 0.00 0.00 0.00 92 1011.1
20260508064214 41 0 0.0 0.0 0.00 0.00 0.00 92 1011.4
20260508063014 41 0 0.0 0.0 0.00 0.00 0.00 92 1011.5
20260508061814 41 0 0.0 0.0 0.00 0.00 0.00 92 1011.5
20260508060614 41 0 0.0 0.0 0.00 0.00 0.00 92 1011.5
20260508055414 41 0 0.0 0.0 0.00 0.00 0.00 92 1011.8
20260508054214 41 0 0.0 0.0 0.00 0.00 0.00 92 1011.9
20260508053014 40 0 0.0 0.0 0.00 0.00 0.00 92 1012.0
20260508051814 40 0 0.0 0.0 0.00 0.00 0.00 92 1012.1
20260508050257 40 0 0.0 0.0 0.00 0.00 0.00 92 1012.1
20260508045057 40 0 0.0 0.0 0.00 0.00 0.00 92 1012.1
20260508043858 40 0 0.0 1.0 0.00 0.00 0.00 92 1012.1
20260508042657 40 0 0.0 0.0 0.00 0.00 0.00 92 1012.1
20260508041457 39 0 0.0 0.0 0.00 0.00 0.00 92 1012.0
20260508040257 39 0 0.0 0.0 0.00 0.00 0.00 92 1011.8
20260508035057 39 0 0.0 0.0 0.00 0.00 0.00 92 1011.8
20260508033858 39 0 0.0 0.0 0.00 0.00 0.00 91 1011.8
20260508032657 39 0 0.0 0.0 0.00 0.00 0.00 91 1011.8
20260508030427 39 0 0.0 0.0 0.00 0.00 0.00 91 1011.9
20260508025226 40 0 0.0 0.0 0.00 0.00 0.00 91 1011.9
20260508024026 40 0 0.0 0.0 0.00 0.00 0.00 90 1011.8
20260508022619 40 0 0.0 0.0 0.00 0.00 0.00 90 1011.7
20260508021419 41 0 0.0 0.0 0.00 0.00 0.00 90 1011.7
20260508020219 41 0 0.0 0.0 0.00 0.00 0.00 90 1011.7
20260508015020 41 0 0.0 0.0 0.00 0.00 0.00 89 1011.7
20260508013820 42 0 0.0 0.0 0.00 0.00 0.00 89 1011.7
20260508012620 42 0 0.0 0.0 0.00 0.00 0.00 89 1011.6
20260508011420 43 0 0.0 0.0 0.00 0.00 0.00 88 1011.4
20260508010220 43 0 0.0 0.0 0.00 0.00 0.00 88 1011.2
20260508005020 44 0 0.0 0.0 0.00 0.00 0.00 86 1011.1
20260508003820 45 0 0.0 0.0 0.00 0.00 0.00 86 1011.1
20260508002619 45 0 0.0 0.0 0.00 0.00 0.00 85 1011.2
20260508001420 46 0 0.0 0.0 0.00 0.00 0.00 85 1011.0
20260507235431 46 0 0.0 0.0 0.00 0.00 0.00 85 1010.9
20260507234231 46 0 0.0 0.0 0.00 0.00 0.00 85 1010.9
20260507233031 46 0 0.0 0.0 0.00 0.00 0.00 83 1011.0
20260507231831 46 0 0.0 1.0 0.00 0.00 0.00 82 1011.0
20260507230631 47 0 0.0 3.0 0.00 0.00 0.00 81 1011.2
20260507225431 48 0 0.0 2.0 0.00 0.00 0.00 80 1010.9
20260507224231 48 0 0.0 1.0 0.00 0.00 0.00 78 1010.8
20260507223031 49 0 0.0 4.0 0.00 0.00 0.00 73 1010.8
20260507221832 50 0 0.0 2.0 0.00 0.00 0.00 70 1010.8
20260507220631 50 259 1.0 5.0 0.00 0.00 0.00 65 1010.6
20260507215431 51 0 0.0 5.0 0.00 0.00 0.00 61 1010.5
20260507214231 51 243 1.0 6.0 0.00 0.00 0.00 58 1010.5
20260507213031 52 0 0.0 6.0 0.00 0.00 0.00 55 1010.3
20260507211831 53 216 1.0 6.0 0.00 0.00 0.00 55 1010.2
20260507210631 54 239 1.0 7.0 0.00 0.00 0.00 54 1010.0
20260507205431 54 227 1.0 8.0 0.00 0.00 0.00 56 1010.1
20260507204231 54 223 1.0 7.0 0.00 0.00 0.00 53 1009.9
20260507203031 54 334 2.0 5.0 0.00 0.00 0.00 53 1009.9
20260507201830 54 5 1.0 5.0 0.00 0.00 0.00 54 1010.0
20260507200632 53 0 0.0 3.0 0.00 0.00 0.00 57 1010.1
20260507193726 54 227 2.0 5.0 0.00 0.00 0.00 55 1010.4
20260507192526 54 290 1.0 5.0 0.00 0.00 0.00 57 1010.4
20260507191326 54 0 0.0 5.0 0.00 0.00 0.00 56 1010.6
20260507190126 54 0 0.0 5.0 0.00 0.00 0.00 54 1010.5
20260507184927 53 0 0.0 4.0 0.00 0.00 0.00 54 1010.6
20260507183726 53 0 0.0 3.0 0.00 0.00 0.00 56 1010.6
20260507182527 53 219 1.0 7.0 0.00 0.00 0.00 58 1010.6
20260507181326 53 0 0.0 3.0 0.00 0.00 0.00 67 1010.7
20260507180126 51 0 0.0 3.0 0.00 0.00 0.00 78 1010.7
20260507174926 50 0 0.0 3.0 0.00 0.00 0.00 79 1010.8
20260507172701 50 0 0.0 2.0 0.00 0.00 0.00 76 1011.0
20260507171501 50 0 0.0 3.0 0.00 0.00 0.00 76 1011.0
20260507165657 52 0 0.0 2.0 0.00 0.00 0.00 72 1011.0
20260507164457 52 0 0.0 2.0 0.00 0.00 0.00 69 1011.2
20260507163257 53 0 0.0 4.0 0.00 0.00 0.00 67 1011.2
20260507162057 53 183 1.0 4.0 0.00 0.00 0.00 59 1011.3
20260507160857 52 0 0.0 2.0 0.00 0.00 0.00 62 1011.5
20260507155657 52 0 0.0 2.0 0.00 0.00 0.00 66 1011.5
20260507154457 52 0 0.0 4.0 0.00 0.00 0.00 67 1011.6
20260507153257 51 0 0.0 3.0 0.00 0.00 0.00 70 1011.7
20260507151547 51 0 0.0 7.0 0.00 0.00 0.00 72 1011.8
20260507150347 50 0 0.0 4.0 0.00 0.00 0.00 70 1011.8
20260507144556 50 0 0.0 3.0 0.00 0.00 0.00 71 1011.9
20260507143356 49 0 0.0 2.0 0.00 0.00 0.00 72 1012.0
20260507142156 49 0 0.0 2.0 0.00 0.00 0.00 73 1012.1
20260507140956 49 0 0.0 3.0 0.00 0.00 0.00 74 1012.0
20260507135756 48 0 0.0 3.0 0.00 0.00 0.00 76 1012.1
20260507134556 48 0 0.0 2.0 0.00 0.00 0.00 78 1012.2
20260507133356 47 0 0.0 1.0 0.00 0.00 0.00 79 1012.3
20260507132156 46 0 0.0 1.0 0.00 0.00 0.00 80 1012.3
20260507130955 46 0 0.0 1.0 0.00 0.00 0.00 81 1012.3
20260507125756 45 0 0.0 1.0 0.00 0.00 0.00 83 1012.2